Regional Weather Roundup
Issued by NWS

Home | Current Version | Previous Version | Graphics & Text | Print | Product List | Glossary On
Versions: 1 2 3 4 5 6 7 8 9 10 11 12 13 14 15 16 17 18 19 20 21 22 23 24 25 26 27 28 29 30 31 32 33 34 35 36 37 38 39 40 41 42 43 44 45 46 47 48 49 50
000
ASUS43 KTOP 020459
RWRKS

WEATHER ROUNDUP FOR KANSAS
NATIONAL WEATHER SERVICE GOODLAND KS
1200 AM CDT THU JUL 02 2015

NOTE:  "FAIR" INDICATES FEW OR NO CLOUDS BELOW 12,000 FEET WITH NO
SIGNIFICANT WEATHER AND/OR OBSTRUCTIONS TO VISIBILITY.

KSZ001>006-013>018-027>032-041>047-020600-
NORTHWEST KANSAS

CITY           SKY/WX    TMP DP  RH WIND       PRES   REMARKS
GOODLAND       CLOUDY    69  61  75 W9        30.05S
HAYS           CLOUDY    77  61  57 NE8       29.91S
HILL CITY      MOCLDY    76  60  57 E3        29.93S
RUSSELL        CLOUDY    78  67  68 NE6       29.89R
$$

KSZ061>065-074>080-084>089-020600-
SOUTHWEST KANSAS

CITY           SKY/WX    TMP DP  RH WIND       PRES   REMARKS
DODGE CITY     MOCLDY    76  56  49 SE6       29.94S
ELKHART          N/A     81  56  42 NW6         N/A
GARDEN CITY    CLOUDY    77  56  48 SE7       29.96S
GREAT BEND     CLOUDY    79  64  61 NE7       29.90S
LIBERAL        MOCLDY    84  57  39 E14       29.97F
$$

KSZ066>073-081>083-090>101-020600-
SOUTHEAST KANSAS

CITY           SKY/WX    TMP DP  RH WIND       PRES   REMARKS
CHANUTE        CLEAR     83  71  67 SW15      29.78R
COFFEYVILLE    CLEAR     83  72  69 S15G23    29.78S
HUTCHINSON     PTCLDY    81  65  58 N9        29.85S
MEDICINE LODGE   N/A     77  61  57 N5        29.87R
NEWTON         MOCLDY    75  66  73 N3        29.86S
PARSONS        CLEAR     83  72  69 S10       29.79S
WICHITA INTL   MOCLDY    78  66  66 W3        29.82S
WICHITA JABRA  PTCLDY    78  68  71 NW7       29.83R
WINFIELD       PTCLDY    83  68  60 SW15      29.81F
$$

KSZ007>012-019>026-033>040-048>060-102>105-020600-
NORTHEAST KANSAS

CITY           SKY/WX    TMP DP  RH WIND       PRES   REMARKS
CONCORDIA      MOCLDY    75  70  84 NE5       29.88R
EMPORIA        CLEAR     78  74  87 N12       29.80R
LAWRENCE       PTCLDY    77  73  87 E10G17    29.82R
MANHATTAN      PTCLDY    79  73  82 NE8       29.83S
OLATHE IND     PTCLDY    75  67  76 NE9       29.83R
OLATHE EXE     MOCLDY    74  66  76 NE10      29.82R
SALINA         CLOUDY    83  69  62 NE7       29.85R
TOPEKA BILLARD CLEAR     77  74  90 NE5       29.82S
TOPEKA FORBES  CLEAR     79  74  84 NE9       29.81S
$$


USA.gov is the U.S. government's official web portal to all federal, state and local government web resources and services.